GW0787 Weather Reports


Display with metric or nautical units.
time (UTC)temp
F
wind
direction
speed
MPH
gust
MPH
rain 1hr
in
rain 24hr
in
rain mn
in
humidity
%
barometer
mb
20260504050018 57 143 0.0 0.0 0.00 0.00 0.00 69 1010.3
20260504044523 59 143 0.0 0.0 0.00 0.00 0.00 68 1010.2
20260504043018 60 142 0.0 0.0 0.00 0.00 0.00 66 1010.0
20260504041516 61 141 0.0 0.0 0.00 0.00 0.00 66 1010.0
20260504040022 62 141 0.0 0.0 0.00 0.00 0.00 60 1009.8
20260504034516 65 141 0.0 0.0 0.00 0.00 0.00 56 1009.6
20260504033016 67 141 0.0 0.0 0.00 0.00 0.00 52 1009.4
20260504031515 69 141 0.0 5.0 0.00 0.00 0.00 50 1009.2
20260504030020 71 228 0.0 5.0 0.00 0.00 0.00 45 1009.1
20260504024514 74 251 1.0 5.0 0.00 0.00 0.00 37 1009.0
20260504023013 74 229 0.0 4.0 0.00 0.00 0.00 35 1008.9
20260504021512 74 90 0.0 6.0 0.00 0.00 0.00 38 1008.9
20260504020017 75 145 0.0 3.0 0.00 0.00 0.00 35 1009.0
20260504014512 79 236 1.0 5.0 0.00 0.00 0.00 30 1009.0
20260504013011 80 246 1.0 3.0 0.00 0.00 0.00 30 1009.0
20260504011508 81 63 1.0 4.0 0.00 0.00 0.00 26 1009.0
20260504010006 80 91 1.0 4.0 0.00 0.00 0.00 25 1009.1
20260504004503 82 79 1.0 5.0 0.00 0.00 0.00 25 1009.1
20260504003002 82 288 0.0 7.0 0.00 0.00 0.00 23 1009.2
20260504001620 82 354 1.0 8.0 0.00 0.00 0.00 22 1009.3
20260504000059 82 71 1.0 3.0 0.00 0.00 0.00 20 1009.3
20260503234557 82 44 3.0 8.0 0.00 0.00 0.00 21 1009.4
20260503233057 82 25 0.0 6.0 0.00 0.00 0.00 21 1009.5
20260503231553 82 95 1.0 5.0 0.00 0.00 0.00 21 1009.8
20260503230051 83 114 0.0 6.0 0.00 0.00 0.00 22 1009.9
20260503224549 83 97 1.0 4.0 0.00 0.00 0.00 20 1010.2
20260503223047 85 174 0.0 8.0 0.00 0.00 0.00 22 1010.4
20260503221544 86 232 1.0 7.0 0.00 0.00 0.00 19 1010.6
20260503220047 84 210 2.0 7.0 0.00 0.00 0.00 21 1010.9
20260503214538 84 233 3.0 9.0 0.00 0.00 0.00 19 1011.1
20260503213037 83 218 2.0 8.0 0.00 0.00 0.00 20 1011.4
20260503211534 84 285 2.0 6.0 0.00 0.00 0.00 20 1011.6
20260503210030 82 162 1.0 7.0 0.00 0.00 0.00 23 1011.9
20260503204526 80 133 1.0 5.0 0.00 0.00 0.00 23 1012.2
20260503203029 79 51 1.0 3.0 0.00 0.00 0.00 21 1012.4
20260503201521 79 324 0.0 5.0 0.00 0.00 0.00 24 1012.6
20260503200019 79 224 0.0 7.0 0.00 0.00 0.00 25 1012.8
20260503194516 79 187 1.0 5.0 0.00 0.00 0.00 26 1013.1
20260503193014 78 285 1.0 7.0 0.00 0.00 0.00 25 1013.4
20260503191518 77 249 1.0 4.0 0.00 0.00 0.00 32 1013.6
20260503190005 74 27 0.0 3.0 0.00 0.00 0.00 34 1013.9
20260503184503 74 170 0.0 3.0 0.00 0.00 0.00 35 1014.1
20260503183111 73 175 0.0 4.0 0.00 0.00 0.00 36 1014.4
20260503181608 71 158 1.0 4.0 0.00 0.00 0.00 39 1014.7
20260503180050 68 62 0.0 3.0 0.00 0.00 0.00 42 1014.9
20260503174547 66 312 0.0 3.0 0.00 0.00 0.00 46 1015.1
20260503173053 65 80 0.0 4.0 0.00 0.00 0.00 47 1015.3
20260503171538 63 126 0.0 4.0 0.00 0.00 0.00 52 1015.6
20260503081531 46 281 0.0 0.0 0.00 0.00 0.00 84 1016.8
20260503071512 48 281 0.0 0.0 0.00 0.00 0.00 83 1016.6